Location: Newark
(37.3394°N, 6.0261°W)
Time: 05:49:01
(UTC+00:00)

Envisat - Pass Details

Date: 22 March 2019
Orbit: 764 x 766 km, 98.2° (Epoch: 23 April)

Event Time Altitude Azimuth Distance (km) Brightness Sun altitude
Rises 20:15:52 0° 208° (SSW) 3,219 6.4 -20.1°
Reaches altitude 10° 20:19:00 10° 229° (SW) 2,298 5.8 -20.7°
Maximum altitude 20:22:10 17° 268° (W) 1,886 5.9 -21.3°
Drops below altitude 10° 20:25:21 10° 307° (NW) 2,308 6.5 -21.9°
Sets 20:28:32 0° 328° (NNW) 3,239 7.0 -22.5°
